Location: Unspecified
(0.0000°N, 0.0000°E)
Time: 18:53:57
(UTC+00:00)

Vanguard 2 Rocket - Visible Passes

Search period start: 23 July 2024 00:00
Search period end: 02 August 2024 00:00
Orbit: 555 x 3302 km, 32.9° (Epoch: 23 July)

Date Brightness Start Highest point End Pass type
(mag) Time Alt. Az. Time Alt. Az. Time Alt. Az.
23 Jul 10.1 01:45:33 39° ESE 01:45:33 39° ESE 01:55:58 10° SE visible
23 Jul 9.6 03:51:10 44° SW 03:54:27 46° SSW 04:12:52 10° SE visible
23 Jul 10.1 22:08:10 10° N 22:09:47 14° N 22:09:47 14° N visible
24 Jul 10.8 00:47:19 15° ESE 00:47:19 15° ESE 00:49:46 10° ESE visible
24 Jul 9.6 02:52:56 53° S 02:52:56 53° S 03:08:27 10° SE visible
24 Jul 10.2 04:58:33 18° WSW 05:09:06 28° SSW 05:23:50 10° SSE visible
25 Jul 10.2 01:54:29 33° SE 01:54:29 33° SE 02:03:20 10° SE visible
25 Jul 9.8 04:00:04 35° SW 04:02:36 36° SSW 04:19:54 10° SSE visible
25 Jul 10.0 22:14:48 10° NNW 22:15:39 13° N 22:15:39 13° N visible
26 Jul 10.9 00:55:50 14° ESE 00:55:50 14° ESE 00:57:31 10° ESE visible
26 Jul 9.9 03:01:24 41° S 03:01:24 41° S 03:15:26 10° SE visible
26 Jul 10.4 05:06:59 14° SW 05:18:04 23° SSW 05:31:16 10° SSE visible
26 Jul 9.8 21:14:50 10° N 21:15:58 12° NNE 21:15:58 12° NNE visible
27 Jul 10.3 02:02:36 29° SE 02:02:36 29° SE 02:10:23 10° SE visible
27 Jul 10.1 04:08:09 28° SW 04:11:10 29° SSW 04:26:59 10° SSE visible
27 Jul 10.1 22:21:42 10° NNW 22:21:49 10° NNW 22:21:49 10° NNW visible
28 Jul 10.9 01:03:39 13° SE 01:03:39 13° SE 01:04:49 10° SE visible
28 Jul 10.1 03:09:12 33° S 03:09:12 33° S 03:22:19 10° SE visible
28 Jul 10.5 05:14:50 10° SW 05:27:26 19° SSW 05:39:13 10° SSE visible
28 Jul 9.6 21:20:50 10° N 21:22:13 14° N 21:22:13 14° N visible
29 Jul 10.4 02:10:08 25° SSE 02:10:08 25° SSE 02:17:14 10° SE visible
29 Jul 10.3 04:15:40 22° SSW 04:20:09 23° SSW 04:34:21 10° SSE visible
30 Jul 10.9 01:10:58 12° SE 01:10:58 12° SE 01:11:45 10° SE visible
30 Jul 10.2 03:16:30 27° S 03:16:30 27° S 03:29:16 10° SSE visible
30 Jul 10.6 05:25:09 10° SW 05:37:04 18° S 05:48:02 10° SSE visible
30 Jul 9.6 21:27:29 10° NNW 21:28:39 15° NNW 21:28:39 15° NNW visible
31 Jul 10.5 02:17:16 22° SSE 02:17:16 22° SSE 02:23:58 10° SE visible
31 Jul 10.4 04:22:47 17° SSW 04:29:31 20° S 04:42:16 10° SSE visible
31 Jul 9.3 20:27:16 10° N 20:29:11 14° NNE 20:29:11 14° NNE visible
01 Aug 11.0 01:17:57 11° SE 01:17:57 11° SE 01:18:28 10° SE visible
01 Aug 10.4 03:23:28 23° S 03:23:28 23° S 03:36:30 10° SSE visible
01 Aug 10.7 05:34:26 10° SW 05:46:44 19° S 05:57:47 10° SE visible
01 Aug 9.6 21:34:28 10° NNW 21:35:15 14° NNW 21:35:15 14° NNW visible
